Vorticity
8 11 8 6 5 8 6 5 6 9 8 7 -2 4 7 10 7 11 10 12 6 12 7 12 13 11 6 7 9 6 3 7 9 12 8 7 9 4 3 4 5 2 7 11 13
10 7 5 7 7 9 6 10 5 5 9 2 4 5 5 1 2 11 0 9 15 13 13 11 17 9 8 9 5 4 4 11 8 15 -4 9 -7 -1 3 3 3 4 2 17 15
-2 12 5 7 12 8 8 7 4 10 1 3 4 7 7 4 10 6 8 11 9 12 15 14 16 12 9 9 10 12 6 10 7 -2 4 8 4 -3 2 4 3 1 8 13 8
9 -0 6 6 7 7 10 5 6 3 4 3 6 5 6 2 17 10 6 5 12 11 14 13 13 8 7 13 12 7 7 8 6 12 -1 5 7 2 4 6 3 6 18 6 8
7 8 4 6 11 6 6 7 8 5 4 7 7 6 6 3 -1 17 6 10 8 13 12 17 12 10 11 11 11 9 6 8 5 7 4 2 7 5 7 6 4 8 25 10 8
9 6 10 9 9 9 6 7 6 5 5 5 5 7 3 20 12 6 13 12 9 8 16 13 15 12 11 8 7 6 8 7 5 5 5 2 7 3 8 5 12 9 22 9 7
10 9 8 9 9 7 9 9 6 3 6 6 4 8 9 5 11 11 8 8 19 5 6 21 17 8 13 8 8 6 7 7 5 7 6 2 7 17 6 9 4 12 16 11 2
12 9 11 12 9 7 7 10 8 4 6 9 8 8 12 10 8 7 0 1 20 2 23 15 23 10 8 8 4 4 7 8 7 8 6 4 7 13 8 6 2 8 11 13 3
9 9 10 9 10 8 7 8 8 5 7 9 9 11 11 6 6 6 5 4 17 -6 17 29 16 -3 47 8 8 7 5 4 9 6 9 9 11 0 8 7 3 7 8 17 8
11 11 9 8 7 6 7 9 7 5 7 5 8 8 9 9 9 8 5 3 -1 6 -7 44 21 10 19 7 11 6 4 4 10 -6 9 2 10 10 7 5 5 9 6 17 12
9 7 7 9 7 7 8 7 8 6 5 6 9 6 7 8 6 5 6 1 9 3 4 27 32 8 35 6 9 6 11 -5 5 10 4 0 7 6 10 4 6 3 6 8 17
5 6 6 7 8 8 8 6 7 5 2 12 8 14 8 8 7 5 2 -1 6 17 -13 34 44 22 0 23 8 9 11 7 -5 13 19 -1 -6 2 5 8 5 2 -1 11 18
8 9 9 7 7 9 9 6 7 9 12 6 10 8 6 12 10 7 5 5 12 21 3 43 40 20 12 9 5 5 2 9 -10 14 0 10 4 4 10 11 6 5 -1 7 19
9 11 12 10 8 10 7 10 8 8 7 9 6 7 13 13 10 9 13 7 10 13 4 34 30 9 11 22 4 7 2 12 3 6 -6 2 12 11 7 8 11 7 1 23 13
6 8 10 10 11 7 11 7 9 10 6 15 10 12 15 12 13 8 6 8 12 20 -5 45 19 4 4 41 4 8 12 -10 11 6 3 -1 -0 2 24 8 10 1 4 16 11
9 9 8 11 12 9 11 10 9 9 15 9 8 5 9 7 7 5 7 11 9 13 0 40 19 18 3 2 17 1 17 1 -1 4 5 3 4 5 14 17 6 10 0 17 12
15 13 11 12 11 11 11 10 10 5 10 16 8 9 15 11 9 15 5 7 8 7 11 25 39 6 3 18 52 1 5 16 10 2 2 6 6 -3 4 5 -1 -8 -4 9 10
18 16 12 9 13 12 10 11 6 10 3 9 6 5 7 9 9 8 10 7 7 4 7 7 50 23 7 8 39 1 9 -12 13 13 8 5 7 14 16 0 7 18 11 17 17
15 15 15 8 10 11 10 6 10 12 7 4 4 7 7 6 6 7 13 12 7 7 13 7 33 30 18 7 36 18 -8 7 20 8 1 7 23 2 13 -4 5 17 10 5 18
16 10 14 14 10 11 9 9 10 12 11 10 8 8 7 0 12 3 0 8 8 6 12 7 25 24 27 11 14 35 15 12 -6 -0 19 8 7 -15 3 13 12 5 6 10 16
19 17 7 14 13 9 9 13 12 10 11 11 8 8 6 6 4 2 6 6 8 3 11 5 10 20 31 21 3 30 0 1 -6 -1 7 4 26 11 39 20 8 8 7 13 6
20 17 9 12 14 13 12 15 12 8 7 8 9 8 5 6 3 6 6 12 5 1 8 10 12 16 8 20 33 13 32 12 9 -1 -3 -9 -12 2 7 -10 -9 4 2 12 9
32 18 10 14 25 16 14 11 10 8 8 10 8 8 7 8 7 7 8 25 4 8 12 6 8 20 27 26 25 11 16 12 5 14 0 1 1 -2 -6 5 -12 9 12 29 33
13 20 13 -2 9 16 12 9 9 9 9 11 11 9 8 9 10 13 17 9 2 14 12 4 -1 11 28 18 14 12 26 10 18 -1 0 23 20 12 5 0 8 -4 2 -8 -18
25 14 15 17 10 15 11 9 11 12 11 12 12 10 9 12 13 21 23 -3 20 13 5 6 3 5 51 9 7 6 23 39 -6 -2 20 -23 32 -5 -7 17 5 -1 -0 3 15
10 8 6 2 9 10 9 7 8 10 13 15 9 12 11 11 16 16 28 23 11 8 8 18 4 5 60 -23 11 21 11 5 9 12 35 28 -15 -29 7 -2 -4 -2 11 11 4
10 9 10 7 6 9 11 12 10 10 13 4 8 7 20 17 17 25 6 5 9 9 21 1 9 2 22 40 -29 1 8 25 4 4 5 12 10 13 -2 -3 -3 3 14 10 4
Height
5764 5764 5764 5763 5764 5764 5764 5763 5764 5764 5765 5764 5763 5763 5763 5762 5761 5761 5762 5761 5763 5763 5764 5765 5767 5768 5768 5769 5771 5771 5770 5773 5778 5777 5781 5784 5775 5771 5771 5769 5768 5764 5761 5758 5756
5754 5754 5755 5754 5754 5755 5755 5755 5755 5756 5756 5756 5755 5754 5754 5754 5751 5752 5754 5753 5754 5754 5754 5755 5756 5758 5759 5761 5762 5761 5764 5768 5772 5771 5775 5773 5771 5765 5764 5763 5762 5759 5754 5754 5751
5746 5745 5745 5745 5745 5745 5746 5745 5746 5746 5747 5746 5746 5744 5745 5743 5741 5743 5744 5742 5742 5742 5743 5744 5746 5747 5749 5751 5753 5756 5758 5762 5763 5764 5763 5763 5764 5762 5760 5760 5758 5755 5752 5747 5749
5735 5735 5735 5735 5735 5735 5736 5736 5737 5738 5737 5736 5735 5734 5734 5734 5731 5734 5733 5733 5733 5734 5734 5735 5736 5737 5739 5742 5743 5744 5749 5752 5756 5757 5755 5756 5757 5756 5756 5756 5753 5750 5748 5746 5744
5724 5724 5723 5725 5725 5724 5725 5726 5727 5727 5727 5727 5725 5725 5725 5724 5723 5722 5722 5723 5723 5725 5725 5725 5725 5726 5728 5733 5734 5735 5740 5744 5748 5749 5750 5751 5750 5751 5752 5750 5747 5745 5744 5741 5740
5711 5712 5713 5712 5713 5714 5714 5715 5716 5716 5715 5714 5715 5716 5717 5716 5716 5714 5714 5715 5715 5716 5716 5716 5718 5719 5721 5721 5723 5728 5732 5735 5739 5742 5744 5744 5745 5744 5749 5744 5742 5741 5738 5738 5736
5697 5699 5701 5702 5701 5701 5702 5704 5705 5704 5703 5703 5705 5706 5708 5704 5706 5707 5708 5708 5708 5706 5706 5707 5708 5708 5711 5713 5718 5721 5722 5726 5731 5737 5738 5739 5738 5740 5741 5738 5737 5737 5733 5733 5732
5686 5687 5688 5690 5691 5690 5690 5691 5693 5693 5692 5693 5695 5696 5699 5697 5698 5698 5698 5699 5698 5697 5696 5695 5695 5697 5700 5705 5708 5710 5715 5719 5729 5731 5734 5732 5734 5736 5733 5733 5732 5732 5729 5729 5728
5675 5676 5676 5678 5678 5678 5678 5680 5682 5682 5683 5683 5684 5687 5689 5690 5689 5688 5690 5690 5688 5686 5685 5682 5683 5687 5689 5695 5700 5705 5709 5714 5723 5725 5728 5726 5729 5731 5727 5729 5729 5727 5725 5724 5724
5662 5666 5667 5666 5668 5668 5666 5668 5671 5672 5673 5673 5675 5679 5680 5679 5678 5679 5681 5680 5679 5677 5676 5673 5672 5677 5680 5684 5692 5703 5705 5710 5715 5721 5721 5722 5723 5725 5722 5722 5723 5724 5721 5719 5720
5651 5652 5655 5655 5654 5655 5657 5658 5661 5662 5664 5664 5664 5670 5669 5669 5672 5672 5671 5673 5670 5667 5665 5662 5664 5666 5672 5681 5688 5694 5697 5703 5713 5717 5717 5715 5718 5719 5718 5719 5717 5719 5719 5716 5717
5638 5641 5641 5642 5643 5644 5645 5646 5647 5649 5655 5651 5657 5659 5660 5660 5662 5662 5662 5663 5660 5659 5654 5653 5653 5664 5669 5672 5679 5685 5692 5695 5702 5709 5710 5712 5712 5713 5713 5715 5715 5713 5714 5713 5712
5624 5627 5630 5629 5631 5632 5632 5635 5636 5639 5642 5644 5647 5649 5650 5651 5653 5652 5653 5652 5652 5649 5645 5642 5646 5656 5657 5660 5668 5677 5684 5691 5694 5700 5703 5704 5706 5707 5709 5709 5711 5713 5711 5710 5708
5609 5612 5615 5615 5621 5619 5621 5625 5625 5628 5630 5634 5638 5639 5642 5642 5644 5644 5644 5644 5645 5640 5637 5632 5638 5643 5647 5652 5660 5668 5678 5683 5688 5693 5695 5701 5700 5701 5703 5704 5706 5708 5707 5709 5706
5592 5596 5600 5601 5606 5607 5612 5613 5616 5620 5621 5621 5627 5631 5632 5634 5633 5637 5635 5636 5635 5633 5631 5627 5631 5634 5638 5646 5653 5662 5668 5671 5680 5684 5688 5691 5693 5698 5700 5702 5703 5702 5702 5703 5703
5575 5580 5586 5587 5592 5595 5599 5602 5606 5611 5611 5610 5617 5621 5624 5625 5625 5624 5627 5627 5628 5626 5622 5621 5623 5625 5635 5639 5644 5653 5659 5663 5668 5674 5677 5686 5688 5692 5694 5697 5699 5702 5700 5700 5700
5557 5563 5569 5574 5578 5583 5585 5590 5595 5599 5605 5606 5606 5614 5616 5617 5616 5613 5619 5620 5619 5617 5616 5615 5616 5616 5623 5628 5635 5642 5652 5657 5661 5663 5670 5682 5682 5688 5690 5691 5692 5694 5696 5697 5697
5538 5545 5552 5560 5563 5569 5572 5578 5581 5592 5597 5597 5599 5605 5608 5608 5608 5606 5609 5612 5611 5610 5607 5608 5608 5611 5616 5622 5631 5634 5644 5648 5653 5662 5670 5677 5674 5683 5686 5687 5685 5689 5692 5691 5694
5521 5529 5538 5546 5549 5552 5558 5563 5576 5583 5585 5586 5589 5597 5599 5600 5599 5601 5600 5603 5605 5604 5604 5602 5600 5603 5609 5615 5623 5630 5633 5646 5655 5659 5663 5668 5673 5676 5680 5683 5682 5684 5687 5688 5689
5506 5513 5525 5530 5534 5536 5542 5555 5564 5568 5571 5577 5581 5586 5589 5594 5590 5593 5594 5595 5597 5597 5598 5600 5597 5599 5604 5609 5614 5622 5636 5639 5643 5649 5655 5663 5668 5673 5674 5678 5679 5680 5680 5682 5684
5489 5497 5512 5515 5516 5520 5534 5546 5551 5555 5561 5567 5572 5576 5578 5582 5582 5585 5588 5588 5590 5590 5592 5593 5594 5599 5599 5602 5611 5616 5621 5627 5636 5644 5651 5658 5663 5663 5665 5668 5671 5673 5674 5678 5681
5473 5485 5496 5502 5504 5513 5526 5535 5538 5544 5549 5556 5561 5565 5567 5571 5571 5575 5579 5580 5583 5584 5586 5587 5589 5591 5596 5596 5603 5609 5617 5621 5629 5638 5642 5650 5658 5661 5663 5665 5666 5670 5670 5672 5676
5460 5475 5485 5492 5496 5506 5516 5522 5527 5534 5540 5545 5550 5554 5557 5561 5563 5565 5569 5572 5574 5576 5580 5583 5586 5585 5591 5594 5597 5600 5609 5618 5622 5629 5634 5641 5651 5656 5657 5658 5662 5667 5665 5667 5669
5455 5464 5475 5483 5491 5497 5505 5512 5519 5525 5531 5536 5540 5544 5547 5551 5553 5558 5562 5564 5567 5569 5573 5577 5581 5582 5586 5589 5591 5597 5603 5611 5617 5621 5629 5635 5645 5646 5651 5653 5657 5659 5660 5660 5662
5447 5460 5468 5477 5485 5491 5497 5504 5510 5516 5522 5526 5530 5534 5537 5539 5542 5546 5552 5557 5558 5562 5566 5570 5574 5577 5579 5582 5588 5593 5597 5604 5609 5617 5623 5633 5635 5639 5637 5645 5645 5649 5651 5657 5658
5443 5454 5461 5468 5476 5483 5489 5497 5502 5508 5513 5517 5521 5525 5528 5530 5533 5537 5540 5546 5550 5553 5559 5564 5568 5572 5574 5580 5585 5589 5593 5598 5604 5611 5615 5622 5626 5627 5631 5633 5633 5638 5643 5647 5649
5440 5448 5454 5463 5470 5477 5484 5490 5496 5500 5506 5510 5514 5517 5520 5522 5525 5528 5532 5537 5540 5546 5553 5558 5563 5568 5570 5573 5578 5584 5587 5594 5598 5602 5609 5612 5617 5624 5624 5627 5628 5634 5636 5639 5641